Location: Gradaro
(45.0833°N, 10.8833°E)
Time: 14:25:13
(UTC+00:00)

ATLAS 2AS CENTAUR R/B - Pass Details

Date: 29 November 2020
Orbit: 943 x 1268 km, 63.7° (Epoch: 21 January)

Event Time Altitude Azimuth Distance (km) Brightness Sun altitude
Exits shadow 04:15:37 22° 226° (SW) 2,463 4.2 -23.6°
Maximum altitude 04:21:11 77° 309° (NW) 1,303 2.9 -22.6°
Drops below altitude 10° 04:29:04 10° 36° (NE) 3,216 5.5 -21.2°
Sets 04:31:50 0° 38° (NE) 4,156 6.2 -20.8°
